GW7195 Weather Reports


time (UTC)temp
C
wind
direction
speed
KPH
gust
KPH
rain 1hr
cm
rain 24hr
cm
rain mn
cm
humidity
%
barometer
mb
20260906225826 25 335 4.8 4.8 0.00 0.00 0.00 46 826.7
20260906225322 25 305 3.2 3.2 0.00 0.00 0.00 47 826.7
20260906224817 25 258 6.4 8.0 0.00 0.00 0.00 48 826.7
20260906224314 25 233 1.6 3.2 0.00 0.00 0.00 48 826.7
20260906223810 24 226 6.4 8.0 0.00 0.00 0.00 48 827.0
20260906223306 25 233 3.2 4.8 0.00 0.00 0.00 50 827.0
20260906222803 24 222 4.8 4.8 0.00 0.00 0.00 50 826.7
20260906222305 24 282 8.0 9.7 0.00 0.00 0.00 49 827.0
20260906221800 23 226 3.2 4.8 0.00 0.00 0.00 51 827.4
20260906221255 23 208 4.8 4.8 0.00 0.00 0.00 53 827.0
20260906220751 24 236 17.7 22.5 0.00 0.00 0.00 51 827.4
20260906220245 23 231 8.0 9.7 0.00 0.00 0.00 51 827.0
20260906215745 23 243 9.7 14.5 0.00 0.00 0.00 52 827.4
20260906215245 24 329 14.5 16.1 0.00 0.00 0.00 51 827.4
20260906214743 23 236 6.4 8.0 0.00 0.00 0.00 52 827.4
20260906214238 24 251 1.6 3.2 0.00 0.00 0.00 51 827.4
20260906213738 23 259 8.0 11.3 0.00 0.00 0.00 52 827.4
20260906213237 22 203 3.2 4.8 0.00 0.00 0.00 53 827.4
20260906212734 22 206 3.2 3.2 0.00 0.00 0.00 53 827.4
20260906212230 22 253 4.8 8.0 0.00 0.00 0.00 52 827.4
20260906211730 23 206 6.4 9.7 0.00 0.00 0.00 52 827.4
20260906211225 23 205 1.6 3.2 0.00 0.00 0.00 51 827.4
20260906210720 24 232 8.0 12.9 0.00 0.00 0.00 51 827.4
20260906210215 24 258 11.3 12.9 0.00 0.00 0.00 51 827.4
20260906205710 23 232 6.4 9.7 0.00 0.00 0.00 52 827.7
20260906205207 25 246 9.7 12.9 0.00 0.00 0.00 51 827.7
20260906204707 25 173 3.2 3.2 0.00 0.00 0.00 49 827.7
20260906204206 26 264 6.4 8.0 0.00 0.00 0.00 44 827.7
20260906203706 26 226 1.6 3.2 0.00 0.00 0.00 44 827.7
20260906203201 27 22 8.0 16.1 0.00 0.00 0.00 43 827.7
20260906202658 26 344 8.0 11.3 0.00 0.00 0.00 43 827.7
20260906202157 26 348 6.4 9.7 0.00 0.00 0.00 43 827.7
20260906201653 26 214 3.2 4.8 0.00 0.00 0.00 44 827.7
20260906201151 25 329 8.0 11.3 0.00 0.00 0.00 44 827.7
20260906200648 26 322 6.4 9.7 0.00 0.00 0.00 44 827.7
20260906200143 24 265 11.3 12.9 0.00 0.00 0.00 46 827.7
20260906195639 25 151 1.6 3.2 0.00 0.00 0.00 45 827.7
20260906195135 27 224 4.8 8.0 0.00 0.00 0.00 42 828.1
20260906194631 27 335 3.2 3.2 0.00 0.00 0.00 39 827.7
20260906194126 27 359 8.0 11.3 0.00 0.00 0.00 39 827.7
20260906193626 26 22 3.2 8.0 0.00 0.00 0.00 38 827.7
20260906193121 26 29 4.8 8.0 0.00 0.00 0.00 41 828.1
20260906192617 27 21 4.8 4.8 0.00 0.00 0.00 37 827.7
20260906192116 26 351 4.8 8.0 0.00 0.00 0.00 40 827.7
20260906191612 27 254 4.8 8.0 0.00 0.00 0.00 38 828.1
20260906191111 26 276 1.6 4.8 0.00 0.00 0.00 40 828.1
20260906190610 26 334 6.4 9.7 0.00 0.00 0.00 40 827.7
20260906190105 27 207 6.4 9.7 0.00 0.00 0.00 40 828.1
20260906185604 26 207 1.6 3.2 0.00 0.00 0.00 39 828.5
20260906185103 26 207 8.0 9.7 0.00 0.00 0.00 41 828.5
20260906184558 26 207 6.4 9.7 0.00 0.00 0.00 40 828.5
20260906184054 25 207 4.8 8.0 0.00 0.00 0.00 41 828.5
20260906183549 26 206 4.8 4.8 0.00 0.00 0.00 42 828.5
20260906183045 25 205 3.2 3.2 0.00 0.00 0.00 41 828.8
20260906182540 25 205 6.4 8.0 0.00 0.00 0.00 42 828.8
20260906182036 25 204 1.6 1.6 0.00 0.00 0.00 42 828.8
20260906181532 26 204 4.8 8.0 0.00 0.00 0.00 40 828.8
20260906181027 25 204 1.6 1.6 0.00 0.00 0.00 40 828.8
20260906180522 26 204 6.4 8.0 0.00 0.00 0.00 39 828.8
20260906180021 26 204 3.2 4.8 0.00 0.00 0.00 41 828.8
20260906175520 25 204 6.4 8.0 0.00 0.00 0.00 39 829.2
20260906175015 25 204 6.4 9.7 0.00 0.00 0.00 41 829.2
20260906174513 25 204 6.4 8.0 0.00 0.00 0.00 42 829.2
20260906174009 26 204 4.8 8.0 0.00 0.00 0.00 42 829.6
20260906173509 25 203 3.2 3.2 0.00 0.00 0.00 45 829.6
20260906173004 25 203 6.4 9.7 0.00 0.00 0.00 44 829.6
20260906172459 24 203 4.8 4.8 0.00 0.00 0.00 44 829.6
20260906171955 25 203 1.6 1.6 0.00 0.00 0.00 46 829.6
20260906171454 24 203 6.4 8.0 0.00 0.00 0.00 45 829.6
20260906170950 24 203 4.8 8.0 0.00 0.00 0.00 45 829.9
20260906170446 23 203 4.8 8.0 0.00 0.00 0.00 47 829.9
20260906165943 24 203 3.2 3.2 0.00 0.00 0.00 45 830.3
20260906165442 23 202 4.8 8.0 0.00 0.00 0.00 45 829.9
20260906164937 24 203 4.8 4.8 0.00 0.00 0.00 45 830.3
20260906164436 23 203 6.4 8.0 0.00 0.00 0.00 45 829.9
20260906163933 23 202 1.6 3.2 0.00 0.00 0.00 46 829.9
20260906163428 23 203 8.0 9.7 0.00 0.00 0.00 45 829.9
20260906162926 23 203 8.0 9.7 0.00 0.00 0.00 45 829.9
20260906162425 23 202 3.2 3.2 0.00 0.00 0.00 46 829.9
20260906161920 23 202 1.6 3.2 0.00 0.00 0.00 47 829.9
20260906161420 23 202 4.8 4.8 0.00 0.00 0.00 48 829.9
20260906160919 23 202 1.6 3.2 0.00 0.00 0.00 49 829.9
20260906160412 22 202 1.6 3.2 0.00 0.00 0.00 51 829.9
20260906155910 23 203 4.8 4.8 0.00 0.00 0.00 49 829.9
20260906155405 23 202 1.6 1.6 0.00 0.00 0.00 50 829.9
20260906154901 23 203 4.8 4.8 0.00 0.00 0.00 49 829.9
20260906154401 23 203 1.6 3.2 0.00 0.00 0.00 48 829.6
20260906153900 23 203 4.8 4.8 0.00 0.00 0.00 47 829.9
20260906153359 23 203 3.2 3.2 0.00 0.00 0.00 47 829.9
20260906152854 22 203 3.2 3.2 0.00 0.00 0.00 48 829.9
20260906152354 22 203 4.8 4.8 0.00 0.00 0.00 51 829.9
20260906151853 22 203 3.2 3.2 0.00 0.00 0.00 53 829.9
20260906151349 21 203 1.6 1.6 0.00 0.00 0.00 51 829.9
20260906150845 21 203 1.6 1.6 0.00 0.00 0.00 52 829.9
20260906150340 21 202 0.0 1.6 0.00 0.00 0.00 54 829.9
20260906145839 21 202 1.6 1.6 0.00 0.00 0.00 52 829.9
20260906145338 20 202 1.6 3.2 0.00 0.00 0.00 53 829.9
20260906144833 18 202 0.0 1.6 0.00 0.00 0.00 60 829.9
20260906144328 18 202 0.0 0.0 0.00 0.00 0.00 61 829.9
20260906143828 18 202 0.0 1.6 0.00 0.00 0.00 63 829.9
20260906143325 18 202 1.6 1.6 0.00 0.00 0.00 70 829.9
20260906142820 18 203 3.2 3.2 0.00 0.00 0.00 64 829.9
20260906142315 18 202 0.0 0.0 0.00 0.00 0.00 77 829.6
20260906141814 15 202 0.0 0.0 0.00 0.00 0.00 84 829.6
20260906141309 15 202 0.0 0.0 0.00 0.00 0.00 82 829.6
20260906140808 13 202 0.0 0.0 0.00 0.00 0.00 86 829.6
20260906140303 13 202 0.0 0.0 0.00 0.00 0.00 84 829.6
20260906135800 13 202 0.0 0.0 0.00 0.00 0.00 84 829.6
20260906135255 13 202 0.0 0.0 0.00 0.00 0.00 84 829.6
20260906134751 12 202 0.0 0.0 0.00 0.00 0.00 87 829.6
20260906134246 12 202 0.0 0.0 0.00 0.00 0.00 89 829.6
20260906133742 11 202 0.0 0.0 0.00 0.00 0.00 86 829.6
20260906133237 11 202 0.0 0.0 0.00 0.00 0.00 90 829.6
20260906132732 10 202 0.0 0.0 0.00 0.00 0.00 93 829.6
20260906132228 10 202 0.0 0.0 0.00 0.00 0.00 95 829.6
20260906131723 10 202 0.0 0.0 0.00 0.00 0.00 97 829.6
20260906131218 10 202 0.0 0.0 0.00 0.00 0.00 95 829.2
20260906130714 10 203 0.0 1.6 0.00 0.00 0.00 94 829.2
20260906130209 10 202 1.6 1.6 0.00 0.00 0.00 97 829.2
20260906125707 9 202 1.6 1.6 0.00 0.00 0.00 97 829.2
20260906125205 9 202 1.6 1.6 0.00 0.00 0.00 97 829.6
20260906124701 9 202 1.6 1.6 0.00 0.00 0.00 97 829.2
20260906124156 9 202 0.0 0.0 0.00 0.00 0.00 97 829.2
20260906123655 9 202 0.0 0.0 0.00 0.00 0.00 97 829.6
20260906123150 9 202 1.6 1.6 0.00 0.00 0.00 98 829.2
20260906122649 9 202 0.0 1.6 0.00 0.00 0.00 97 829.6
20260906122145 9 202 0.0 1.6 0.00 0.00 0.00 97 829.2
20260906121641 10 199 1.6 1.6 0.00 0.00 0.00 97 829.2
20260906121137 10 198 3.2 3.2 0.00 0.00 0.00 97 829.6
20260906120633 10 202 1.6 3.2 0.00 0.00 0.00 98 829.2
20260906120131 10 201 1.6 1.6 0.00 0.00 0.00 98 829.2
20260906115630 10 201 1.6 1.6 0.00 0.00 0.00 98 829.2
20260906115127 10 201 3.2 3.2 0.00 0.00 0.00 98 829.2
20260906114625 10 202 1.6 1.6 0.00 0.00 0.00 98 829.2
20260906114120 10 202 1.6 1.6 0.00 0.00 0.00 99 829.6
20260906113620 10 202 0.0 0.0 0.00 0.00 0.00 98 829.2
20260906113120 10 202 0.0 0.0 0.00 0.00 0.00 98 829.2
20260906112620 10 202 3.2 3.2 0.00 0.00 0.00 98 829.2
20260906112117 10 202 1.6 3.2 0.00 0.00 0.00 99 829.2
20260906111616 10 202 1.6 1.6 0.00 0.00 0.00 99 829.2
20260906111111 10 202 1.6 1.6 0.00 0.00 0.00 99 829.2
20260906110606 10 202 1.6 1.6 0.00 0.00 0.00 99 829.2
20260906110105 10 202 0.0 0.0 0.00 0.00 0.00 99 829.2
20260906105600 10 202 0.0 1.6 0.00 0.00 0.00 99 829.2
20260906105056 10 202 0.0 0.0 0.00 0.00 0.00 99 829.2
20260906104555 10 202 0.0 0.0 0.00 0.00 0.00 99 829.2
20260906104049 10 201 0.0 0.0 0.00 0.00 0.00 99 829.2
20260906103547 10 201 1.6 1.6 0.00 0.00 0.00 99 829.2
20260906103044 10 200 1.6 1.6 0.00 0.00 0.00 98 829.2
20260906102543 10 205 0.0 0.0 0.00 0.00 0.00 99 829.6
20260906102038 10 205 1.6 1.6 0.00 0.00 0.00 99 829.2
20260906101533 10 205 0.0 1.6 0.00 0.00 0.00 99 829.2
20260906101027 10 210 0.0 1.6 0.00 0.00 0.00 99 829.2
20260906100523 10 209 0.0 0.0 0.00 0.00 0.00 99 829.2
20260906100024 10 204 0.0 0.0 0.00 0.00 0.00 99 829.2
20260906095518 10 205 0.0 0.0 0.00 0.00 0.00 99 829.2
20260906095014 10 204 0.0 0.0 0.00 0.00 0.00 99 829.2
20260906094512 10 203 0.0 1.6 0.00 0.00 0.00 99 828.8
20260906094009 10 201 1.6 1.6 0.00 0.00 0.00 99 829.2
20260906093505 10 205 1.6 1.6 0.00 0.00 0.00 99 829.2
20260906092959 10 205 0.0 0.0 0.00 0.00 0.00 99 829.2
20260906092459 10 205 0.0 0.0 0.00 0.00 0.00 99 829.2
20260906091954 10 205 0.0 0.0 0.00 0.00 0.00 99 829.2
20260906091450 10 205 0.0 0.0 0.00 0.00 0.00 99 829.2
20260906090947 10 205 0.0 0.0 0.00 0.00 0.00 99 829.2
20260906090442 10 205 0.0 0.0 0.00 0.00 0.00 99 828.8
20260906085941 10 205 0.0 0.0 0.00 0.00 0.00 99 829.2
20260906085441 10 205 0.0 0.0 0.00 0.00 0.00 99 829.2
20260906084940 10 205 0.0 0.0 0.00 0.00 0.00 99 829.2
20260906084435 10 205 0.0 0.0 0.00 0.00 0.00 99 829.2
20260906083934 10 205 0.0 0.0 0.00 0.00 0.00 99 829.2
20260906083430 10 205 0.0 0.0 0.00 0.00 0.00 99 829.2
20260906082929 10 205 0.0 0.0 0.00 0.00 0.00 99 829.2
20260906082424 10 205 0.0 0.0 0.00 0.00 0.00 99 829.2
20260906081920 10 202 3.2 3.2 0.00 0.00 0.00 99 829.2
20260906081415 10 205 0.0 1.6 0.00 0.00 0.00 99 829.2
20260906080912 10 205 0.0 0.0 0.00 0.00 0.00 99 829.2
20260906080408 10 205 0.0 0.0 0.00 0.00 0.00 99 829.2
20260906075907 10 205 0.0 0.0 0.00 0.00 0.00 99 829.6
20260906075402 10 205 1.6 1.6 0.00 0.00 0.00 99 829.2
20260906074857 10 205 0.0 0.0 0.00 0.00 0.00 99 829.2
20260906074357 10 204 0.0 0.0 0.00 0.00 0.00 99 829.6
20260906073855 10 202 0.0 0.0 0.00 0.00 0.00 99 829.2
20260906073350 10 202 0.0 0.0 0.00 0.00 0.00 99 829.6
20260906072847 10 202 3.2 3.2 0.00 0.00 0.00 99 829.6
20260906072342 10 200 0.0 1.6 0.00 0.00 0.00 99 829.6
20260906071838 10 201 0.0 0.0 0.00 0.00 0.00 99 829.6
20260906071333 10 201 0.0 0.0 0.00 0.00 0.00 99 829.6
20260906070829 10 200 0.0 1.6 0.00 0.00 0.00 99 829.9
20260906070325 10 200 0.0 0.0 0.00 0.00 0.00 99 829.6
20260906065820 10 200 1.6 3.2 0.00 0.00 0.00 99 829.9
20260906065315 10 204 1.6 1.6 0.00 0.00 0.00 99 829.6
20260906064811 10 206 0.0 0.0 0.00 0.00 0.00 99 829.6
20260906064307 10 206 0.0 0.0 0.00 0.00 0.00 99 829.6
20260906063807 10 206 0.0 0.0 0.00 0.00 0.00 99 829.6
20260906063302 10 206 0.0 0.0 0.00 0.00 0.00 99 829.2
20260906062757 10 206 0.0 0.0 0.00 0.00 0.00 99 829.6
20260906062256 10 206 0.0 0.0 0.00 0.00 0.00 99 829.6
20260906061752 10 206 0.0 0.0 0.00 0.00 0.00 99 829.9
20260906061249 10 210 0.0 0.0 0.00 0.00 0.00 99 829.6
20260906060743 11 192 1.6 1.6 0.00 0.00 0.00 99 829.6
20260906060241 10 211 0.0 1.6 0.00 0.00 0.00 99 829.6
20260906055736 10 213 0.0 0.0 0.00 0.61 0.61 99 829.6
20260906055231 11 196 0.0 0.0 0.00 0.61 0.61 99 829.6
20260906054727 11 207 0.0 0.0 0.00 0.61 0.61 99 829.9
20260906054222 11 214 0.0 0.0 0.00 0.61 0.61 99 829.9
20260906053719 11 211 1.6 1.6 0.00 0.61 0.61 99 829.9
20260906053214 11 193 0.0 0.0 0.00 0.61 0.61 99 829.9
20260906052709 11 193 0.0 0.0 0.00 0.61 0.61 99 829.9
20260906052205 11 194 3.2 3.2 0.00 0.61 0.61 99 830.3
20260906051702 11 200 3.2 3.2 0.00 0.61 0.61 99 829.9
20260906051201 12 210 1.6 3.2 0.00 0.61 0.61 99 830.3
20260906050656 11 199 4.8 4.8 0.00 0.61 0.61 99 830.3
20260906050151 11 198 3.2 3.2 0.00 0.61 0.61 98 830.3
20260906045650 12 224 4.8 4.8 0.36 0.61 0.61 98 830.3
20260906045145 12 241 6.4 8.0 0.36 0.61 0.61 95 830.3
20260906044641 11 275 8.0 11.3 0.36 0.61 0.61 94 830.3
20260906044136 11 203 3.2 3.2 0.36 0.61 0.61 95 830.3
20260906043633 12 226 3.2 3.2 0.36 0.61 0.61 96 830.3
20260906043128 12 203 1.6 3.2 0.36 0.61 0.61 97 830.3
20260906042627 11 203 3.2 3.2 0.36 0.61 0.61 96 830.3
20260906042121 12 211 3.2 3.2 0.36 0.61 0.61 95 830.3
20260906041618 12 203 4.8 8.0 0.36 0.61 0.61 96 830.3
20260906041118 12 182 8.0 9.7 0.36 0.61 0.61 96 830.3
20260906040613 12 206 4.8 4.8 0.33 0.58 0.58 93 829.9
20260906040109 13 192 4.8 8.0 0.03 0.28 0.28 87 830.3
20260906035604 19 193 1.6 3.2 0.00 0.00 0.00 63 829.9
20260906035059 19 142 8.0 9.7 0.00 0.00 0.00 48 829.6
20260906034559 20 205 8.0 9.7 0.00 0.00 0.00 46 829.9
20260906034054 20 199 0.0 0.0 0.00 0.00 0.00 47 829.6
20260906033549 20 205 1.6 1.6 0.00 0.00 0.00 46 829.2
20260906033045 20 218 4.8 4.8 0.00 0.00 0.00 46 829.2
20260906032541 20 211 4.8 4.8 0.00 0.00 0.00 45 829.2
20260906032036 19 236 4.8 9.7 0.00 0.00 0.00 46 829.2
20260906031532 19 244 3.2 3.2 0.00 0.00 0.00 47 829.2
20260906031027 19 204 3.2 3.2 0.00 0.00 0.00 46 829.2
20260906030526 20 206 3.2 4.8 0.00 0.00 0.00 46 828.8
20260906030026 20 202 3.2 3.2 0.00 0.00 0.00 45 829.2
20260906025526 19 222 4.8 4.8 0.00 0.00 0.00 46 828.8
20260906025024 19 207 1.6 1.6 0.00 0.00 0.00 49 829.2
20260906024520 19 205 1.6 1.6 0.00 0.00 0.00 48 828.8
20260906024019 18 211 1.6 1.6 0.00 0.00 0.00 49 828.8
20260906023516 18 206 1.6 1.6 0.00 0.00 0.00 51 828.8
20260906023010 17 207 4.8 4.8 0.00 0.00 0.00 52 828.8
20260906022506 17 212 0.0 1.6 0.00 0.00 0.00 54 828.8
20260906022001 17 212 0.0 1.6 0.00 0.00 0.00 54 828.8
20260906021455 17 212 0.0 0.0 0.00 0.00 0.00 54 828.5
20260906020950 17 212 0.0 1.6 0.00 0.00 0.00 53 828.5
20260906020444 17 212 0.0 0.0 0.00 0.00 0.00 53 828.5
20260906015944 17 212 1.6 1.6 0.00 0.00 0.00 53 828.5
20260906015443 17 212 1.6 1.6 0.00 0.00 0.00 53 828.5
20260906014943 17 212 0.0 1.6 0.00 0.00 0.00 52 828.8
20260906014438 17 212 1.6 1.6 0.00 0.00 0.00 52 828.5
20260906013934 18 212 0.0 0.0 0.00 0.00 0.00 52 828.5
20260906013429 18 212 0.0 0.0 0.00 0.00 0.00 52 828.5
20260906012925 18 212 0.0 0.0 0.00 0.00 0.00 52 828.5
20260906012425 19 211 0.0 1.6 0.00 0.00 0.00 49 828.5
20260906011924 20 211 0.0 0.0 0.00 0.00 0.00 48 828.8
20260906011420 20 244 3.2 4.8 0.00 0.00 0.00 46 828.5
20260906010915 21 204 1.6 1.6 0.00 0.00 0.00 45 828.5
20260906010410 21 210 0.0 1.6 0.00 0.00 0.00 45 828.5
20260906005907 21 212 0.0 1.6 0.00 0.00 0.00 43 828.5
20260906005406 22 210 0.0 1.6 0.00 0.00 0.00 42 828.5
20260906004905 22 211 3.2 3.2 0.00 0.00 0.00 41 828.5
20260906004405 22 211 1.6 1.6 0.00 0.00 0.00 41 828.5
20260906003900 22 217 1.6 3.2 0.00 0.00 0.00 41 828.5
20260906003355 22 212 1.6 3.2 0.00 0.00 0.00 41 828.5
20260906002851 23 211 1.6 1.6 0.00 0.00 0.00 40 828.5
20260906002350 23 233 3.2 3.2 0.00 0.00 0.00 39 828.5
20260906001846 23 204 1.6 1.6 0.00 0.00 0.00 39 828.5
20260906001341 23 277 1.6 1.6 0.00 0.00 0.00 39 828.5
20260906000836 23 310 4.8 4.8 0.00 0.00 0.00 39 828.5
20260906000337 23 282 9.7 12.9 0.00 0.00 0.00 39 828.5
20260905235836 23 216 0.0 1.6 0.00 0.00 0.00 39 828.5
20260905235331 23 295 9.7 12.9 0.00 0.00 0.00 38 828.1
20260905234826 23 218 4.8 8.0 0.00 0.00 0.00 38 828.5
20260905234322 24 7 3.2 3.2 0.00 0.00 0.00 38 828.5
20260905233817 25 123 1.6 1.6 0.00 0.00 0.00 37 828.5
20260905233312 25 251 6.4 8.0 0.00 0.00 0.00 37 828.1
20260905232811 25 4 6.4 9.7 0.00 0.00 0.00 37 828.1
20260905232307 25 218 1.6 3.2 0.00 0.00 0.00 36 828.5
20260905231803 25 256 6.4 8.0 0.00 0.00 0.00 36 828.1
20260905231258 25 122 3.2 3.2 0.00 0.00 0.00 36 828.1
20260905230754 24 155 4.8 4.8 0.00 0.00 0.00 37 828.1
20260905230252 24 37 6.4 8.0 0.00 0.00 0.00 37 828.1